Change the Weather History Date:

Friday, June 6, 2014

  Actual Average Record
Temperature  
Mean Temperature 55 °F 54 °F  
Max Temperature 60 °F 60 °F 70 °F (1983)
Min Temperature 49 °F 48 °F 41 °F (1954)
Degree Days  
Heating Degree Days 11 11  
Month to date heating degree days 66  
Since 1 June heating degree days 66  
Since 1 July heating degree days 4617  
Cooling Degree Days 0 0  
Month to date cooling degree days 0  
Year to date cooling degree days 0  
Since 1 June cooling degree days 0  
Growing Degree Days 4 (Base 50)    
Moisture  
Dew Point 47 °F    
Average Humidity 75    
Maximum Humidity 86    
Minimum Humidity 64    
Precipitation  
Precipitation 0.00 in 0.06 in 1.00 in (1985)
Month to date precipitation 0.00 0.41  
Year to date precipitation 23.03 35.61  
Since 1 July precipitation 32.02 62.71  
Snow  
Snow 0.00 in - - ()
Month to date snowfall 0.0  
Since 1 June snowfall 0.0  
Since 1 July snowfall 0.0  
Snow Depth -    
Sea Level Pressure  
Sea Level Pressure 29.88 in    
Wind  
Wind Speed 20 mph (NNW)    
Max Wind Speed 31 mph    
Max Gust Speed 44 mph    
Visibility 7 miles    
Events      
T = Trace of Precipitation, MM = Missing Value Source: NWS Daily Summary

Daily Weather History Graph

Daily Weather History Graph

Search for Another Location

Airport or City:

Trip Planner

Search our weather history database for the weather conditions in past years. The results will help you decide how hot, cold, wet, or windy it might be!

Date:

Astronomy

Jun. 06, 2014 Rise Set
Actual Time 5:42 AM PDT 8:48 PM PDT
Civil Twilight 5:08 AM PDT 9:22 PM PDT
Nautical Twilight 4:25 AM PDT 10:06 PM PDT
Astronomical Twilight 3:34 AM PDT 10:57 PM PDT
Moon 2:08 PM PDT (6/6) 1:43 AM PDT (6/6)
Length of Visible Light 16h 13m
Length of Day
15h 06m
First Quarter, 59% of the Moon is Illuminated
Jun 6
First Quarter
Jun 12
Full
Jun 19
Last Quarter
Jun 27
New
Jul 5
First Quarter

Hourly Weather History & Observations

Time (PDT) Temp. Dew Point Humidity Pressure Visibility Wind Dir Wind Speed Gust Speed Precip Events Conditions
12:56 AM 50.0 °F 44.1 °F 80% 29.89 in 9.0 mi North 15.0 mph - N/A   Clear
1:56 AM 50.0 °F 45.0 °F 83% 29.89 in 9.0 mi NNW 19.6 mph 27.6 mph N/A   Clear
2:56 AM 50.0 °F 45.0 °F 83% 29.89 in 8.0 mi North 15.0 mph 25.3 mph N/A   Clear
3:56 AM 48.9 °F 45.0 °F 86% 29.89 in 8.0 mi North 15.0 mph 25.3 mph N/A   Clear
4:56 AM 48.9 °F 45.0 °F 86% 29.89 in 8.0 mi NNW 17.3 mph 25.3 mph N/A   Clear
5:56 AM 48.9 °F 45.0 °F 86% 29.90 in 7.0 mi North 16.1 mph - N/A   Clear
6:56 AM 50.0 °F 45.0 °F 83% 29.90 in 8.0 mi North 18.4 mph 24.2 mph N/A   Clear
7:56 AM 51.1 °F 46.0 °F 83% 29.91 in 7.0 mi NNW 19.6 mph 29.9 mph N/A   Clear
8:56 AM 52.0 °F 46.0 °F 80% 29.91 in 7.0 mi NNW 21.9 mph 28.8 mph N/A   Clear
9:56 AM 54.0 °F 46.9 °F 77% 29.90 in 8.0 mi NNW 19.6 mph 33.4 mph N/A   Clear
10:56 AM 55.0 °F 46.9 °F 74% 29.89 in 8.0 mi NNW 23.0 mph 36.8 mph N/A   Clear
11:56 AM 57.0 °F 48.0 °F 72% 29.88 in 7.0 mi NNW 20.7 mph 34.5 mph N/A   Clear
12:56 PM 57.9 °F 48.0 °F 70% 29.87 in 8.0 mi NNW 25.3 mph 35.7 mph N/A   Clear
1:56 PM 60.1 °F 48.9 °F 67% 29.86 in 8.0 mi NNW 25.3 mph 39.1 mph N/A   Clear
2:56 PM 57.9 °F 48.0 °F 70% 29.86 in 7.0 mi NNW 27.6 mph 38.0 mph N/A   Clear
3:56 PM 57.9 °F 48.0 °F 70% 29.85 in 7.0 mi NNW 27.6 mph 39.1 mph N/A   Clear
4:56 PM 55.9 °F 48.0 °F 75% 29.83 in 6.0 mi NNW 28.8 mph 42.6 mph N/A   Haze
5:56 PM 55.0 °F 48.0 °F 77% 29.83 in 6.0 mi NNW 28.8 mph 44.9 mph N/A   Haze
6:56 PM 54.0 °F 48.0 °F 80% 29.84 in 6.0 mi NNW 23.0 mph 41.4 mph N/A   Haze
7:39 PM 53.1 °F 46.9 °F 80% 29.86 in 6.0 mi North 16.1 mph 26.5 mph N/A   Haze
7:56 PM 53.1 °F 46.9 °F 80% 29.87 in 7.0 mi North 11.5 mph 21.9 mph N/A   Mostly Cloudy
8:56 PM 51.1 °F 46.0 °F 83% 29.87 in 6.0 mi North 11.5 mph 20.7 mph N/A   Haze
9:03 PM 51.1 °F 46.0 °F 83% 29.87 in 6.0 mi North 13.8 mph 25.3 mph N/A   Haze
9:56 PM 51.1 °F 46.0 °F 83% 29.88 in 8.0 mi North 19.6 mph 31.1 mph N/A   Clear
11:56 PM 50.0 °F 46.0 °F 86% 29.90 in 8.0 mi North 15.0 mph 26.5 mph N/A   Clear